Wind_Speed
5 5 6 5 5 5 4 4 4 3 3 3 3 3 3 3 3 3 4 4 5 5 5 5 6 7 7 7 7 6 6 7 7 6 6 7 7 8 8 9 9 9 9 9 10 11 11 12 12 11 10 10 10 11 11 12 12 13 14 14 14 15 15 15 15 16 16 16 16
6 7 7 7 6 6 5 5 5 4 3 3 2 2 2 3 3 3 4 4 4 5 5 6 7 7 7 7 6 5 5 6 6 6 6 6 7 7 8 8 8 9 9 9 10 11 11 12 12 11 10 10 11 11 12 12 13 14 14 15 15 15 15 15 16 16 16 16 16
6 6 6 6 5 5 4 4 3 3 3 2 2 2 2 3 3 3 3 4 4 5 5 6 7 7 7 6 5 4 5 6 6 5 5 6 7 7 8 8 9 9 9 10 11 11 12 12 12 11 11 11 11 12 12 13 13 14 15 15 15 15 15 15 16 16 16 16 16
5 5 4 4 4 4 3 3 3 2 2 2 2 2 2 3 3 3 3 4 4 5 6 7 7 7 6 5 4 5 5 5 5 5 5 6 6 7 8 8 9 9 9 10 11 11 12 13 12 11 11 11 12 12 12 13 14 14 15 15 15 15 15 16 16 16 16 17 17
3 3 2 2 2 2 2 2 2 2 1 2 2 2 2 3 3 4 4 4 4 5 7 8 7 6 5 3 3 3 4 4 4 5 5 6 6 7 8 8 9 9 10 10 11 12 12 13 12 11 11 11 11 12 12 13 14 15 15 15 15 15 16 16 16 16 16 17 18
3 2 3 3 3 3 2 2 2 2 2 2 2 2 2 3 4 5 5 4 4 6 7 8 7 5 3 3 3 3 4 4 5 5 5 6 6 7 8 8 9 9 10 10 11 12 13 13 12 11 11 11 12 12 13 14 14 15 15 15 15 15 15 15 16 16 17 17 18
2 2 2 2 3 2 2 2 2 2 2 2 1 1 2 4 5 5 5 4 4 5 5 5 4 3 2 3 3 3 4 5 5 5 5 6 6 7 8 8 9 9 10 11 11 12 13 12 12 11 11 12 12 13 13 14 15 15 15 15 15 15 14 15 16 16 17 18 19
1 1 1 1 1 1 1 1 2 2 2 1 1 1 3 5 6 5 4 4 4 4 4 3 3 2 2 3 3 3 4 4 5 5 5 6 6 7 7 8 9 9 10 11 12 12 13 12 11 11 12 13 13 14 14 15 15 15 15 15 15 14 15 16 16 17 18 18 19
1 1 1 1 1 1 1 1 1 1 1 1 1 3 5 6 5 4 4 4 4 4 3 3 3 3 3 3 3 3 4 4 5 5 5 5 6 7 7 8 9 10 10 11 12 12 12 12 11 12 12 13 14 14 14 14 15 15 15 15 15 15 16 16 17 17 18 18 19
2 2 1 1 0 0 0 1 1 1 1 1 2 4 5 4 3 3 4 5 4 4 3 3 4 4 4 4 4 4 4 4 5 5 5 5 5 6 7 8 9 10 11 11 12 12 12 12 12 12 13 13 14 14 14 14 14 14 15 15 15 16 17 17 17 18 18 18 19
3 3 2 2 1 1 1 1 1 1 1 1 2 3 3 3 3 3 4 5 5 4 4 4 4 5 5 5 4 4 5 5 5 5 5 5 6 6 7 8 9 10 11 11 12 12 12 12 12 13 14 14 14 14 14 14 14 14 15 15 16 17 17 17 18 18 18 18 19
3 3 3 2 1 1 1 2 2 2 2 2 2 2 3 3 4 4 5 6 6 6 6 6 6 5 5 5 4 5 5 5 5 5 5 5 6 6 7 8 9 10 11 11 12 12 12 12 13 14 14 14 14 14 14 14 14 15 15 16 16 17 18 18 18 18 18 19 19
3 3 3 2 2 2 2 2 3 3 3 3 3 3 4 4 5 5 6 6 7 7 7 7 6 6 5 4 4 5 5 5 5 5 5 6 6 6 7 8 9 10 11 11 12 12 12 13 13 14 14 15 14 14 14 14 14 15 16 16 17 17 18 18 19 19 19 19 20
3 3 3 3 2 2 3 3 3 4 4 4 4 4 4 5 5 5 6 7 7 7 7 7 7 6 5 5 5 5 6 6 6 6 6 6 6 7 7 8 9 10 11 11 12 12 12 13 14 14 15 14 14 14 14 14 15 15 16 17 17 18 18 18 19 19 19 19 20
4 4 3 3 3 3 3 4 4 4 4 5 5 5 5 6 6 6 6 7 7 7 7 7 6 7 6 6 6 6 6 6 6 6 6 6 7 7 8 8 9 10 11 11 12 12 13 13 14 15 15 15 15 14 14 14 15 15 16 17 17 18 18 18 18 19 19 20 20
4 4 4 4 4 4 4 4 4 5 5 5 6 6 6 6 6 7 7 7 7 7 6 6 6 7 7 7 7 6 6 6 6 6 6 7 7 7 8 9 9 10 11 11 12 12 13 14 15 15 15 15 15 15 14 15 15 15 16 17 17 18 18 18 18 19 19 20 20
5 5 5 5 5 5 5 5 5 6 6 6 6 7 7 7 7 7 7 7 7 6 6 6 7 7 7 8 7 7 6 6 6 6 7 7 7 8 8 9 9 10 11 11 12 12 13 14 15 15 16 16 15 14 14 15 15 16 17 18 18 18 18 18 19 19 19 19 20
5 6 6 6 6 6 6 6 6 7 7 7 7 7 7 7 7 7 8 8 7 7 7 7 7 8 8 8 8 7 7 7 7 7 7 7 8 8 9 9 10 10 11 11 12 12 13 14 16 17 17 16 15 14 15 15 16 17 18 19 18 18 18 19 19 19 19 19 19
6 6 6 6 7 7 7 7 8 8 8 8 8 8 8 8 8 8 8 8 8 8 8 8 8 8 8 8 8 8 8 7 7 7 7 8 8 8 9 9 10 10 11 12 12 12 13 16 18 19 19 17 16 15 15 15 16 17 18 18 18 18 19 19 19 19 19 18 19
6 6 7 7 7 7 8 8 8 8 9 9 8 8 8 8 8 8 8 8 8 8 9 9 9 9 9 9 9 8 8 8 8 8 8 8 8 9 9 9 10 11 11 11 11 12 15 19 22 22 21 19 17 16 15 15 16 17 18 19 18 18 19 19 19 18 18 18 18
6 6 7 7 7 8 8 9 9 9 9 9 9 9 9 9 9 9 8 8 8 9 9 9 9 9 9 9 9 9 9 8 8 8 8 8 8 9 9 10 11 11 11 11 11 14 18 22 24 24 22 21 19 17 16 16 17 17 18 18 18 18 18 18 18 18 18 18 18
6 6 7 7 8 8 9 9 9 9 9 9 9 9 9 9 9 9 9 9 9 10 10 10 10 9 9 9 9 9 9 9 9 9 9 9 8 9 9 10 11 11 11 11 13 17 21 23 24 24 23 21 19 18 17 18 18 18 18 18 18 19 19 18 18 17 17 17 17
6 6 7 7 8 8 9 9 9 10 10 10 10 10 10 10 10 10 10 10 10 10 10 10 10 10 10 10 10 9 9 10 10 10 9 9 9 9 9 10 11 11 11 11 16 20 22 23 24 23 22 21 20 19 18 19 19 18 18 19 19 19 19 18 17 17 17 17 17
7 7 7 8 8 9 9 9 10 10 10 10 10 10 10 11 11 11 11 11 11 11 10 10 10 10 10 10 10 10 10 10 10 10 10 9 9 10 10 11 11 10 11 15 18 21 22 23 23 23 22 21 20 19 19 20 19 19 19 19 19 19 18 17 17 17 17 17 17
7 8 8 8 9 9 9 10 10 10 10 11 11 11 11 11 11 12 12 12 12 11 11 11 11 11 11 11 11 11 11 11 11 10 10 10 10 10 11 11 11 11 14 18 19 21 22 23 23 23 22 21 19 19 20 20 20 20 19 19 18 18 18 17 17 17 17 17 18
7 8 8 9 9 9 10 10 10 11 11 11 11 12 12 12 12 12 12 12 12 12 12 12 11 12 12 12 12 12 12 12 11 11 10 10 10 10 11 11 11 12 16 19 20 21 21 22 23 22 21 20 19 19 20 21 21 20 19 17 17 16 16 16 16 17 17 18 18
8 8 9 9 9 10 10 10 10 11 11 12 12 12 13 13 13 13 13 13 13 12 12 12 12 13 13 13 13 13 12 12 12 11 11 11 12 12 11 11 11 13 16 19 20 20 21 22 23 22 21 20 19 19 20 21 21 20 18 16 15 15 15 15 16 16 17 18 18
8 8 9 9 10 10 10 10 11 11 12 12 12 13 13 13 13 13 13 13 13 13 13 13 13 14 14 14 13 13 13 13 12 12 12 12 13 13 12 10 10 13 17 19 19 20 21 22 23 22 21 20 19 19 20 21 21 19 16 15 14 14 14 15 15 16 17 18 18
8 9 9 10 10 10 11 11 11 11 12 12 13 13 13 13 14 14 14 14 14 14 14 14 14 15 15 15 14 14 13 13 13 13 12 12 12 12 11 10 10 13 17 19 19 20 21 22 22 22 20 19 19 19 20 21 20 18 15 14 14 14 14 15 16 16 17 17 18
8 9 10 10 10 11 11 11 11 11 12 12 13 13 13 13 14 14 14 14 15 15 15 14 15 16 16 16 15 14 14 14 14 13 13 12 12 13 12 10 10 14 17 19 19 20 21 22 22 21 20 19 18 19 20 21 19 17 15 14 14 14 15 15 16 16 17 17 17
9 9 10 10 11 11 11 11 11 12 12 12 13 13 13 14 14 14 14 15 15 15 15 15 16 17 17 16 16 15 14 14 15 14 14 13 13 13 11 10 10 14 18 19 19 20 21 22 22 21 19 18 18 19 20 20 19 16 14 14 14 15 15 16 16 16 17 17 17
10 10 10 11 11 11 11 11 12 12 12 12 13 13 13 14 14 14 15 15 15 15 16 16 17 17 17 16 16 16 15 15 15 15 14 13 12 11 10 9 11 14 18 19 19 20 21 22 21 20 19 18 18 19 20 20 18 15 14 14 15 15 15 15 16 16 17 17 17
10 10 10 11 11 11 12 12 12 12 12 12 13 13 13 14 14 14 15 15 15 15 16 16 16 16 16 16 16 17 17 17 17 16 15 14 12 11 10 10 10 14 18 19 19 20 21 22 21 19 18 17 17 18 19 19 16 14 14 14 15 15 15 15 16 17 17 18 17
10 11 11 11 11 12 13 13 13 12 12 13 13 13 14 14 14 14 15 15 15 15 16 16 16 16 16 16 17 17 18 17 16 16 15 14 12 11 10 10 10 14 18 19 20 20 21 21 20 18 17 16 17 18 19 17 14 13 14 14 15 15 15 15 16 17 18 17 16
10 11 11 12 12 13 13 13 13 13 13 13 13 14 14 14 15 15 15 15 15 15 16 16 16 16 16 16 16 16 16 16 16 17 18 17 14 11 10 10 10 14 19 20 20 21 21 21 19 18 16 16 17 18 18 16 14 13 14 14 14 15 15 16 17 17 17 16 16
10 11 12 13 14 14 14 13 13 13 13 14 14 14 14 15 15 15 15 15 15 16 16 16 16 16 16 16 16 15 15 16 17 19 19 19 15 12 11 10 10 14 18 20 20 20 21 20 18 17 16 15 16 17 17 15 14 14 14 14 14 15 15 16 17 17 17 16 16
10 11 13 14 14 14 14 14 14 14 14 14 14 14 15 15 15 15 15 15 15 16 16 16 16 16 16 16 16 14 14 16 18 19 19 17 15 13 11 10 10 13 18 20 20 20 20 19 17 16 15 15 15 16 16 15 14 14 14 14 14 15 16 17 17 17 16 16 17
11 12 13 13 14 14 14 14 15 15 15 14 14 14 15 15 15 15 14 14 15 15 15 16 16 16 16 16 15 15 16 18 19 19 17 14 13 12 12 10 10 13 17 20 20 20 19 18 16 15 14 14 15 16 16 16 15 14 14 14 15 16 17 17 17 16 15 15 18
13 13 13 14 14 15 15 15 15 15 15 15 14 14 15 15 15 15 14 14 14 15 15 15 15 16 16 15 15 16 18 19 18 16 14 12 13 13 14 12 10 13 17 20 20 19 18 16 15 14 14 14 14 15 16 16 15 14 14 14 16 17 18 17 16 15 14 15 16
15 15 14 14 15 16 17 17 16 15 15 15 14 14 15 15 15 15 14 14 14 15 15 15 15 15 15 15 15 17 18 17 15 13 12 12 13 15 16 15 13 15 18 20 20 18 16 15 14 13 13 13 14 15 16 16 15 14 13 14 16 18 18 17 15 14 14 14 14
15 15 15 15 17 18 18 17 16 15 15 14 15 15 15 15 15 14 14 14 14 14 15 16 15 15 15 15 16 17 16 15 13 12 12 13 15 17 18 17 15 15 17 19 19 18 16 15 14 13 13 13 13 14 15 16 15 14 14 15 17 18 18 17 15 14 14 14 13
Wind_Direction
35 30 27 27 27 28 27 23 30 46 66 72 67 55 40 30 19 8 2 0 356 353 348 345 340 337 335 335 338 342 346 349 354 359 1 359 355 355 356 354 352 351 350 349 349 348 346 345 342 338 333 330 330 330 329 329 327 326 326 326 325 324 322 321 319 318 317 316 314
33 29 28 29 35 40 43 40 39 49 60 64 62 53 35 19 11 4 358 357 355 352 348 342 334 330 331 332 337 345 353 355 358 358 354 352 353 355 355 353 352 350 348 347 347 345 344 343 341 337 333 331 329 329 328 328 327 325 325 325 324 322 321 320 318 317 316 315 314
55 52 51 57 70 79 83 80 78 79 78 63 59 49 28 13 7 1 354 348 348 348 344 337 328 326 330 336 343 346 347 351 357 357 353 352 351 351 351 351 350 348 346 345 345 343 342 341 339 336 332 331 330 329 328 327 327 326 325 324 323 321 320 318 317 316 315 313 313
80 84 87 95 100 100 99 96 95 94 83 65 67 54 34 20 9 357 345 339 337 337 337 336 331 330 334 342 343 339 341 349 358 358 353 350 348 348 348 348 347 346 345 344 343 342 341 340 338 335 332 330 329 329 329 328 328 326 325 323 322 321 319 318 316 315 314 312 312
71 80 87 88 88 84 82 80 87 86 80 73 73 55 31 16 3 350 339 332 325 321 325 334 339 341 341 345 341 341 343 348 352 352 349 347 346 346 346 347 347 346 345 344 342 341 340 340 338 335 332 330 330 329 329 328 328 326 324 323 321 320 319 318 317 315 314 313 312
42 35 38 43 54 56 55 61 74 83 90 98 95 63 24 3 351 343 335 328 319 313 320 335 347 349 341 335 337 339 340 339 341 341 341 342 343 344 345 346 346 346 345 344 343 341 340 339 337 334 332 330 328 327 327 327 327 325 324 323 322 320 319 318 317 315 314 313 312
51 50 51 49 49 43 43 61 66 83 105 118 109 45 356 343 341 339 336 330 322 317 321 334 343 342 327 323 325 330 334 334 333 333 334 337 341 343 344 345 346 346 345 344 342 341 340 339 336 333 331 330 329 327 327 326 325 325 324 323 322 321 320 318 317 316 315 313 313
101 105 100 87 65 48 55 76 88 106 122 130 128 330 330 334 341 345 343 334 324 314 310 312 317 314 310 306 310 317 325 329 330 330 330 333 338 342 344 344 345 345 345 343 342 341 340 339 336 333 331 329 327 326 325 325 325 324 323 323 322 321 320 318 317 316 316 314 312
180 196 167 142 109 89 105 122 132 142 155 186 247 294 313 330 345 352 343 329 317 305 298 296 304 305 302 298 300 308 317 323 327 327 327 330 336 341 343 344 344 344 343 342 341 340 340 338 335 332 331 330 328 326 325 325 324 324 324 323 322 321 321 319 319 318 317 314 313
178 180 178 177 198 215 171 175 175 177 191 229 266 291 308 326 344 347 335 324 313 300 291 288 300 304 299 293 293 299 308 315 320 322 324 327 333 338 341 343 343 343 342 342 341 341 339 337 335 333 331 329 327 325 324 324 325 324 324 324 322 322 321 320 320 319 317 315 314
173 177 179 186 215 252 237 209 216 224 235 247 278 295 306 319 323 327 328 325 318 304 287 280 289 296 293 286 286 291 300 306 313 318 319 322 328 335 339 341 342 342 341 341 342 341 339 337 334 333 331 329 327 326 325 325 325 325 324 323 322 321 320 319 319 319 318 316 315
182 187 188 193 218 248 243 232 238 248 253 258 280 295 301 305 305 314 323 326 320 306 290 280 281 284 284 280 282 288 296 301 306 310 313 317 322 329 335 338 340 341 341 340 341 341 339 337 334 332 331 329 328 326 326 325 325 324 323 322 321 320 319 319 318 318 318 316 315
192 194 198 210 244 266 259 244 246 255 263 268 276 287 296 299 298 304 315 320 317 305 292 282 277 274 273 273 280 288 294 297 300 304 309 312 318 324 331 335 338 339 339 339 340 340 339 337 335 333 331 329 328 327 325 325 324 323 322 321 321 320 319 319 319 319 317 316 314
203 202 211 234 256 268 263 250 255 264 270 272 274 280 289 295 294 296 304 312 312 305 295 283 274 267 263 264 276 286 293 294 295 299 304 308 313 320 326 330 334 337 337 338 338 339 339 337 336 333 331 329 327 325 324 323 322 322 321 320 320 319 319 319 319 318 317 315 314
211 212 222 241 257 265 263 259 263 269 274 276 276 280 287 291 291 290 294 303 305 303 294 281 273 267 263 260 269 281 288 289 291 294 300 305 310 317 322 326 330 333 335 336 337 338 338 338 336 334 331 328 326 324 322 321 320 320 320 320 320 320 319 319 319 319 317 316 316
220 226 236 249 254 260 263 264 268 273 277 278 279 282 285 288 289 288 290 296 300 298 290 279 273 271 269 265 267 275 282 286 288 292 297 303 308 314 318 322 326 330 332 334 335 336 337 337 336 334 331 328 325 322 321 319 318 319 320 320 320 320 320 319 319 319 318 318 318
232 239 248 254 257 260 262 264 269 274 278 280 281 282 283 284 286 287 288 290 291 291 287 280 274 270 269 269 269 272 277 282 286 290 295 301 306 310 314 318 322 326 329 331 332 333 335 337 337 335 332 328 324 321 319 317 317 318 320 322 322 321 320 320 320 319 319 319 319
243 248 253 256 258 260 263 264 267 271 274 277 279 280 279 279 280 284 287 286 282 280 280 280 274 268 265 264 265 267 270 276 282 287 292 298 303 306 309 313 318 322 325 327 329 331 334 337 336 334 332 328 324 321 318 316 316 318 321 323 323 322 321 321 321 321 320 320 319
251 255 256 258 260 263 265 267 268 270 273 275 277 278 277 276 276 279 284 286 281 276 274 277 275 269 263 260 259 262 266 271 276 283 289 295 300 303 305 309 313 317 321 323 325 329 332 333 333 333 332 329 326 322 318 317 317 318 321 322 322 322 322 322 322 321 320 320 319
255 258 259 261 264 267 269 272 271 271 271 272 273 275 276 275 275 276 279 282 281 276 272 273 273 269 262 258 258 259 263 267 272 280 286 292 297 300 303 306 310 314 317 318 321 324 328 329 331 332 332 331 329 326 322 319 319 319 321 322 323 322 321 321 321 321 321 320 320
257 260 263 266 269 272 272 272 269 268 268 269 272 274 274 273 273 273 275 276 277 275 273 271 269 266 261 258 257 259 260 264 269 276 283 288 293 297 300 304 308 311 313 314 315 318 322 327 331 332 333 332 331 328 325 323 321 321 322 323 322 321 321 322 322 322 321 320 320
258 264 269 273 274 274 272 269 268 266 266 268 272 273 273 273 272 271 271 272 274 275 274 269 264 262 260 257 256 257 259 263 266 272 277 282 288 293 298 303 307 308 308 307 305 313 321 328 331 332 332 332 331 329 328 327 326 325 324 323 322 322 323 323 323 322 322 321 320
261 268 273 276 276 274 272 269 268 266 266 269 272 274 275 275 273 271 270 271 274 276 274 267 261 258 257 254 254 255 259 264 268 272 275 276 281 288 296 303 306 306 301 295 302 314 324 329 331 331 331 331 330 330 330 330 330 328 325 323 323 324 325 324 324 323 322 321 321
263 269 274 276 276 275 273 272 270 269 269 271 273 276 278 276 274 272 271 271 272 272 270 264 258 254 251 251 251 254 258 263 267 271 273 272 276 284 293 301 304 301 293 290 304 318 326 329 330 331 331 330 329 329 330 332 332 330 328 326 326 326 326 325 323 323 322 322 322
265 270 274 277 277 276 275 275 273 272 272 273 274 276 277 277 276 274 273 273 271 269 266 262 257 253 251 251 253 256 260 263 265 266 268 269 273 281 290 298 301 294 288 292 307 319 326 328 329 330 330 329 328 328 330 332 333 333 332 329 327 326 324 322 321 322 322 322 323
267 272 275 277 278 277 277 277 276 275 275 275 276 277 278 280 279 277 274 273 271 268 265 261 257 253 252 253 256 259 262 264 263 262 263 267 272 280 288 295 295 289 287 294 308 319 326 328 329 329 329 328 328 328 330 332 334 335 334 330 326 322 320 318 319 320 321 323 324
269 274 277 278 279 278 278 279 278 278 278 278 278 279 280 279 279 277 274 273 273 271 267 262 261 257 255 257 258 259 260 262 263 261 261 267 276 283 288 290 290 284 284 293 307 318 325 328 328 328 328 327 327 328 330 332 335 336 335 329 322 318 316 316 317 319 321 323 324
271 275 278 280 280 280 279 279 279 280 280 281 280 280 280 279 277 276 274 274 273 272 270 266 265 263 261 259 258 258 258 259 261 259 258 266 278 285 287 286 282 277 280 292 306 317 324 327 328 328 327 326 327 328 330 333 336 337 333 324 318 315 315 316 317 318 320 323 324
272 277 280 280 280 280 280 281 281 282 282 282 282 281 279 278 278 277 275 274 273 273 272 270 267 267 266 262 261 262 263 262 262 258 256 261 274 281 283 284 275 270 276 290 304 316 324 327 327 327 326 325 326 328 330 333 336 337 332 321 316 314 315 316 317 318 320 322 324
274 279 280 279 279 279 280 281 283 284 284 283 282 280 279 278 279 278 277 276 275 274 272 269 268 267 266 265 265 264 264 264 263 257 252 257 270 279 283 281 273 269 275 289 303 315 322 326 326 325 324 324 325 328 330 332 336 336 331 320 315 314 314 315 316 317 319 321 322
277 278 278 279 279 280 281 283 284 285 285 284 283 281 279 279 279 279 279 279 278 275 272 268 268 267 265 264 264 264 265 265 264 258 253 257 271 279 281 278 274 272 277 288 300 312 320 324 325 324 323 323 325 327 329 332 337 336 328 317 313 312 313 314 315 316 318 320 321
277 277 278 279 279 281 283 285 285 285 284 282 281 279 279 279 280 281 282 281 279 276 273 269 268 265 263 263 263 264 266 266 263 257 252 257 267 273 274 276 280 279 280 287 297 309 318 322 323 322 321 321 324 326 330 335 339 335 323 313 311 312 312 313 314 315 316 319 320
278 279 278 279 280 283 285 285 285 285 283 281 279 278 278 280 282 282 282 281 280 277 274 271 268 265 263 263 263 266 268 267 262 255 251 255 262 268 271 274 281 280 279 284 294 306 316 320 320 320 319 320 323 326 332 338 338 328 316 311 310 311 311 311 312 313 315 317 319
278 279 278 278 282 285 287 288 288 287 285 282 282 281 280 282 284 284 284 283 281 277 274 272 270 267 266 265 265 267 268 264 256 249 247 252 260 266 270 274 279 277 277 281 291 304 313 318 318 317 318 319 322 328 335 340 331 318 310 309 310 311 311 311 312 313 315 317 318
274 275 276 278 282 286 290 291 290 288 286 283 282 282 283 284 286 286 286 284 281 278 275 273 270 269 267 266 264 265 264 259 250 246 247 252 258 264 269 274 276 275 275 281 291 303 312 316 316 315 316 318 323 330 336 337 324 313 310 310 311 312 312 312 313 315 316 317 315
272 274 277 280 284 288 291 291 289 287 285 283 282 282 283 286 286 286 286 284 281 278 275 272 270 269 268 268 264 261 256 251 248 249 253 257 261 265 270 275 275 273 275 281 292 303 310 313 313 313 314 317 324 331 335 334 326 318 314 313 313 313 314 314 315 317 318 317 314
274 276 280 284 287 289 290 291 289 287 285 284 284 284 284 286 287 286 285 284 282 280 277 273 270 269 268 268 264 256 248 248 253 257 260 261 261 267 274 276 272 270 273 280 291 302 308 311 310 310 312 317 323 330 333 333 329 323 319 315 314 314 316 317 318 319 319 316 314
276 280 283 286 288 289 290 290 289 287 285 284 284 284 286 287 287 287 286 285 284 282 280 276 273 270 268 266 260 251 249 257 262 264 262 256 257 265 274 276 270 268 272 281 292 301 307 308 307 308 310 315 321 327 332 333 331 326 321 317 316 317 318 320 321 320 319 316 314
282 286 288 288 290 291 293 292 291 288 286 285 283 284 286 286 286 287 287 285 284 283 281 278 274 271 268 262 255 253 257 264 266 263 254 247 252 265 277 283 276 271 276 286 295 301 305 306 304 304 307 313 320 326 330 334 333 328 322 318 317 318 320 323 323 322 319 317 316
291 293 294 293 295 298 299 297 293 288 285 284 283 283 285 285 285 285 285 284 283 283 281 278 275 271 266 260 256 259 264 268 264 255 246 243 254 269 282 291 287 281 283 291 297 301 304 303 302 302 305 311 318 324 329 332 333 329 322 319 318 320 322 326 326 323 320 319 319
298 299 300 299 301 303 303 299 294 288 284 283 282 283 284 285 285 284 283 283 282 282 281 278 275 271 266 262 260 262 264 262 255 248 245 248 260 274 286 294 294 290 288 292 297 301 303 302 299 299 302 308 315 321 326 331 333 328 322 319 320 323 327 329 329 326 322 321 321
Height
1556 1555 1555 1555 1555 1555 1555 1555 1555 1555 1556 1556 1556 1555 1555 1555 1554 1554 1553 1553 1552 1552 1551 1551 1550 1549 1548 1547 1546 1545 1545 1544 1543 1542 1542 1541 1540 1540 1539 1538 1538 1537 1536 1536 1535 1534 1533 1533 1532 1532 1531 1531 1530 1530 1529 1528 1528 1527 1527 1526 1525 1524 1523 1522 1522 1521 1520 1520 1519
1555 1554 1554 1554 1554 1554 1554 1554 1554 1554 1555 1555 1555 1555 1554 1554 1554 1553 1553 1552 1552 1551 1551 1550 1549 1548 1547 1546 1545 1544 1544 1543 1543 1542 1542 1541 1540 1539 1539 1538 1537 1537 1536 1535 1535 1534 1533 1532 1532 1532 1531 1531 1530 1529 1529 1528 1527 1527 1526 1525 1524 1523 1522 1522 1521 1520 1519 1518 1518
1555 1554 1554 1554 1554 1554 1554 1554 1554 1554 1554 1554 1554 1554 1553 1553 1553 1552 1552 1552 1551 1550 1550 1549 1548 1547 1546 1545 1545 1544 1543 1542 1542 1542 1541 1541 1540 1539 1538 1538 1537 1537 1536 1535 1534 1534 1533 1532 1532 1531 1531 1530 1530 1529 1528 1527 1527 1526 1525 1524 1523 1522 1522 1521 1520 1519 1518 1517 1517
1555 1555 1555 1555 1555 1555 1554 1554 1554 1554 1554 1553 1553 1553 1552 1552 1552 1552 1551 1551 1550 1549 1548 1548 1547 1546 1545 1544 1544 1543 1542 1542 1541 1541 1541 1540 1540 1539 1538 1537 1537 1536 1536 1535 1534 1533 1532 1532 1531 1531 1530 1530 1529 1528 1528 1527 1526 1525 1525 1524 1522 1522 1521 1520 1519 1518 1517 1517 1516
1555 1555 1554 1554 1554 1554 1554 1554 1553 1553 1553 1553 1553 1552 1552 1552 1551 1551 1551 1550 1549 1548 1547 1546 1546 1545 1544 1544 1543 1543 1542 1541 1541 1541 1540 1540 1539 1538 1538 1537 1537 1536 1535 1534 1534 1533 1532 1532 1531 1531 1530 1529 1529 1528 1527 1526 1526 1525 1524 1523 1522 1521 1520 1519 1518 1517 1517 1516 1515
1554 1554 1553 1553 1553 1553 1553 1552 1552 1552 1552 1552 1552 1552 1552 1551 1551 1550 1550 1549 1548 1547 1546 1545 1545 1544 1544 1544 1543 1542 1542 1542 1541 1540 1540 1539 1539 1538 1537 1537 1536 1535 1535 1534 1533 1532 1532 1531 1531 1530 1529 1529 1528 1527 1527 1526 1525 1524 1523 1522 1521 1520 1519 1518 1518 1517 1516 1515 1514
1554 1553 1553 1553 1552 1552 1552 1552 1551 1551 1551 1551 1551 1551 1550 1550 1550 1549 1549 1548 1547 1547 1545 1545 1544 1544 1544 1543 1543 1542 1542 1542 1541 1540 1540 1539 1538 1538 1537 1536 1536 1535 1534 1533 1533 1532 1531 1531 1530 1530 1529 1528 1527 1527 1526 1525 1524 1523 1522 1521 1520 1519 1518 1517 1517 1516 1515 1514 1513
1553 1553 1553 1553 1552 1552 1552 1551 1551 1551 1551 1551 1550 1550 1549 1549 1548 1548 1548 1547 1547 1546 1545 1544 1544 1544 1543 1543 1542 1542 1541 1541 1540 1540 1539 1538 1538 1537 1537 1536 1535 1535 1534 1533 1532 1532 1531 1530 1530 1529 1528 1527 1527 1526 1525 1524 1523 1522 1521 1520 1519 1518 1517 1517 1516 1515 1514 1513 1512
1553 1553 1552 1552 1552 1552 1551 1551 1551 1550 1550 1550 1549 1549 1548 1547 1547 1547 1547 1547 1546 1545 1544 1544 1543 1543 1542 1542 1542 1541 1541 1540 1540 1539 1539 1538 1537 1537 1536 1536 1535 1534 1533 1532 1532 1531 1530 1530 1529 1528 1527 1527 1526 1525 1524 1523 1522 1521 1520 1519 1518 1517 1517 1516 1515 1514 1513 1512 1511
1552 1552 1552 1552 1551 1551 1550 1550 1550 1550 1549 1549 1548 1547 1547 1546 1546 1546 1546 1546 1545 1544 1544 1543 1543 1542 1542 1542 1541 1541 1540 1540 1539 1539 1538 1537 1537 1537 1536 1535 1535 1534 1533 1532 1531 1530 1530 1529 1528 1527 1527 1526 1525 1524 1523 1522 1521 1520 1519 1518 1517 1517 1516 1515 1514 1513 1512 1511 1509
1552 1552 1551 1551 1551 1550 1550 1550 1549 1549 1549 1548 1548 1547 1546 1546 1546 1545 1545 1544 1544 1544 1543 1543 1542 1542 1542 1541 1541 1540 1540 1539 1538 1538 1538 1537 1537 1536 1536 1535 1534 1533 1532 1532 1531 1530 1529 1528 1527 1527 1526 1525 1524 1523 1522 1521 1520 1519 1518 1517 1517 1516 1515 1514 1513 1512 1511 1510 1508
1551 1551 1551 1550 1550 1550 1549 1549 1549 1549 1548 1548 1547 1547 1547 1546 1546 1545 1544 1544 1544 1544 1543 1542 1542 1541 1541 1541 1540 1540 1539 1538 1538 1538 1537 1537 1536 1536 1535 1534 1533 1533 1532 1531 1530 1529 1528 1528 1527 1526 1525 1524 1523 1522 1521 1520 1519 1518 1518 1517 1516 1515 1514 1512 1512 1511 1510 1508 1507
1551 1550 1550 1550 1549 1549 1549 1549 1548 1548 1548 1547 1547 1547 1547 1546 1545 1544 1544 1544 1544 1543 1542 1542 1541 1540 1540 1540 1539 1539 1538 1538 1537 1537 1537 1536 1536 1535 1534 1534 1533 1532 1531 1530 1529 1528 1528 1527 1526 1525 1524 1523 1522 1521 1521 1520 1519 1518 1517 1516 1515 1514 1513 1512 1511 1509 1508 1507 1506
1550 1550 1549 1549 1549 1548 1548 1548 1548 1547 1547 1547 1547 1546 1546 1545 1544 1544 1543 1543 1543 1542 1542 1541 1540 1539 1539 1539 1538 1538 1538 1537 1537 1537 1536 1536 1535 1534 1534 1533 1532 1532 1531 1530 1529 1528 1527 1526 1525 1524 1523 1522 1521 1521 1520 1519 1518 1517 1516 1515 1514 1512 1512 1510 1509 1508 1507 1506 1504
1549 1549 1548 1548 1548 1548 1548 1547 1547 1547 1547 1546 1546 1545 1545 1544 1544 1543 1542 1542 1541 1541 1540 1540 1539 1539 1538 1538 1537 1537 1537 1537 1536 1536 1536 1535 1535 1534 1533 1532 1532 1531 1530 1529 1528 1527 1527 1526 1525 1523 1522 1522 1521 1520 1519 1518 1517 1516 1515 1514 1513 1512 1510 1509 1508 1507 1506 1504 1503
1548 1548 1548 1547 1547 1547 1547 1547 1547 1546 1546 1546 1545 1544 1544 1543 1543 1542 1541 1540 1540 1540 1539 1539 1539 1538 1537 1537 1536 1536 1536 1536 1536 1535 1535 1534 1534 1533 1532 1532 1531 1530 1529 1529 1528 1527 1526 1525 1524 1523 1522 1521 1520 1519 1518 1517 1516 1515 1514 1513 1512 1511 1509 1508 1507 1506 1504 1503 1502
1547 1547 1547 1547 1547 1546 1546 1546 1546 1545 1545 1545 1544 1543 1543 1542 1542 1541 1540 1539 1539 1539 1538 1538 1538 1537 1537 1537 1536 1535 1535 1535 1535 1534 1534 1533 1533 1532 1532 1531 1530 1530 1529 1528 1527 1526 1525 1524 1523 1522 1521 1520 1519 1518 1517 1517 1515 1514 1513 1512 1511 1509 1508 1507 1506 1504 1503 1502 1501
1547 1547 1547 1546 1546 1546 1545 1545 1545 1544 1544 1543 1543 1542 1542 1541 1541 1540 1539 1538 1538 1537 1537 1537 1537 1536 1536 1536 1535 1535 1534 1534 1534 1533 1533 1532 1532 1532 1531 1530 1529 1529 1528 1527 1527 1526 1525 1523 1522 1521 1520 1519 1518 1517 1517 1516 1514 1513 1512 1511 1509 1508 1507 1506 1504 1503 1502 1501 1499
1546 1546 1546 1545 1545 1545 1544 1544 1543 1543 1543 1542 1542 1541 1541 1540 1539 1539 1538 1537 1537 1536 1536 1536 1535 1535 1535 1534 1534 1534 1533 1533 1533 1532 1532 1532 1531 1530 1530 1529 1529 1528 1527 1527 1526 1525 1524 1522 1521 1520 1519 1518 1517 1516 1515 1514 1513 1512 1511 1509 1508 1507 1506 1505 1503 1502 1501 1500 1498
1545 1545 1545 1545 1544 1544 1543 1543 1542 1542 1542 1541 1540 1540 1539 1539 1538 1537 1537 1537 1536 1535 1535 1534 1534 1534 1533 1533 1533 1532 1532 1532 1532 1531 1531 1530 1530 1529 1529 1528 1528 1527 1527 1526 1525 1524 1522 1521 1520 1519 1518 1517 1516 1515 1514 1513 1512 1511 1510 1508 1507 1506 1505 1503 1502 1501 1500 1499 1497
1545 1544 1544 1544 1543 1543 1542 1542 1542 1541 1540 1540 1539 1539 1538 1538 1537 1537 1536 1535 1535 1534 1533 1533 1532 1532 1532 1532 1532 1531 1531 1531 1530 1530 1529 1529 1529 1528 1528 1527 1527 1526 1526 1525 1523 1522 1521 1520 1519 1517 1517 1515 1514 1513 1513 1512 1511 1510 1508 1507 1506 1505 1504 1502 1501 1500 1499 1498 1497
1543 1543 1543 1543 1542 1542 1542 1541 1540 1540 1539 1538 1538 1537 1537 1537 1536 1535 1535 1534 1533 1533 1532 1532 1531 1531 1531 1531 1531 1530 1530 1529 1529 1528 1528 1528 1527 1527 1527 1526 1525 1525 1524 1523 1522 1521 1520 1519 1517 1517 1515 1514 1513 1512 1512 1511 1509 1508 1507 1506 1505 1504 1503 1502 1500 1499 1498 1497 1496
1542 1542 1542 1542 1541 1541 1540 1539 1539 1538 1538 1537 1537 1537 1536 1536 1535 1534 1533 1532 1532 1531 1531 1531 1530 1530 1530 1529 1529 1529 1529 1528 1528 1527 1527 1527 1526 1526 1525 1525 1524 1524 1523 1522 1520 1519 1518 1517 1516 1515 1514 1513 1512 1511 1510 1509 1508 1507 1506 1505 1504 1502 1501 1500 1499 1498 1497 1496 1495
1541 1541 1541 1540 1540 1539 1539 1538 1538 1537 1537 1536 1536 1535 1535 1534 1534 1533 1532 1532 1531 1530 1530 1529 1529 1528 1528 1528 1528 1527 1527 1527 1527 1526 1526 1526 1525 1525 1524 1524 1523 1523 1522 1520 1519 1518 1517 1516 1515 1514 1513 1512 1511 1510 1509 1508 1507 1506 1505 1503 1502 1501 1500 1499 1498 1497 1496 1495 1494
1540 1540 1539 1539 1539 1538 1538 1537 1537 1536 1536 1535 1535 1534 1534 1533 1533 1532 1532 1531 1530 1529 1529 1528 1528 1527 1527 1527 1526 1526 1526 1525 1525 1525 1525 1524 1524 1523 1523 1522 1522 1521 1520 1518 1517 1517 1516 1515 1514 1513 1512 1511 1510 1509 1508 1507 1506 1505 1503 1502 1501 1500 1499 1498 1497 1497 1495 1494 1493
1539 1539 1538 1538 1537 1537 1537 1536 1536 1535 1535 1534 1534 1533 1533 1532 1532 1531 1530 1530 1529 1528 1528 1527 1527 1527 1526 1525 1525 1524 1524 1524 1523 1523 1523 1523 1522 1522 1522 1521 1521 1520 1518 1516 1516 1515 1515 1513 1513 1512 1511 1510 1509 1508 1507 1506 1505 1503 1502 1501 1500 1499 1498 1497 1497 1496 1494 1493 1492
1538 1537 1537 1537 1536 1536 1536 1535 1535 1534 1534 1533 1533 1532 1532 1531 1531 1530 1529 1529 1528 1527 1527 1526 1526 1525 1525 1524 1524 1523 1523 1522 1522 1522 1522 1521 1521 1520 1520 1520 1520 1518 1516 1515 1514 1514 1513 1512 1511 1511 1510 1509 1508 1507 1506 1505 1503 1502 1501 1500 1500 1499 1498 1497 1496 1495 1493 1492 1491
1537 1536 1536 1536 1535 1535 1534 1534 1533 1533 1532 1532 1532 1531 1531 1530 1529 1529 1528 1528 1527 1527 1526 1526 1525 1525 1524 1523 1523 1522 1522 1522 1521 1521 1520 1519 1519 1519 1519 1518 1518 1516 1514 1513 1513 1513 1512 1511 1510 1509 1508 1508 1507 1506 1505 1504 1502 1501 1501 1500 1499 1498 1497 1497 1495 1494 1492 1491 1490
1535 1535 1535 1534 1534 1533 1533 1532 1532 1532 1531 1531 1530 1530 1529 1529 1528 1527 1527 1527 1526 1526 1525 1525 1524 1523 1523 1522 1522 1521 1521 1521 1520 1520 1519 1518 1518 1518 1517 1517 1517 1515 1513 1512 1512 1512 1511 1510 1509 1508 1507 1507 1506 1505 1504 1503 1502 1501 1500 1499 1499 1498 1497 1496 1495 1493 1492 1490 1489
1534 1534 1533 1533 1533 1532 1532 1531 1531 1530 1530 1529 1529 1528 1528 1527 1527 1526 1526 1525 1525 1524 1524 1523 1523 1522 1522 1521 1521 1520 1520 1519 1519 1518 1518 1517 1517 1517 1516 1516 1516 1514 1512 1511 1511 1511 1510 1509 1508 1507 1506 1506 1505 1504 1503 1502 1501 1500 1499 1498 1498 1497 1496 1495 1494 1492 1491 1490 1488
1533 1532 1532 1532 1531 1531 1530 1530 1529 1529 1528 1528 1527 1527 1527 1526 1525 1525 1524 1524 1523 1523 1522 1522 1522 1521 1520 1520 1519 1519 1519 1519 1518 1517 1517 1516 1516 1515 1515 1515 1515 1513 1510 1510 1510 1509 1509 1508 1507 1506 1505 1505 1504 1503 1502 1501 1500 1499 1498 1498 1497 1496 1495 1494 1493 1492 1490 1489 1487
1532 1531 1531 1530 1530 1529 1529 1528 1528 1527 1527 1526 1526 1525 1525 1524 1524 1523 1523 1522 1522 1522 1521 1521 1520 1519 1519 1519 1518 1518 1518 1518 1517 1516 1516 1515 1515 1514 1514 1514 1514 1512 1509 1509 1509 1508 1508 1507 1506 1505 1504 1504 1503 1502 1501 1500 1498 1498 1497 1497 1497 1496 1495 1493 1492 1491 1489 1488 1487
1530 1530 1529 1529 1529 1528 1527 1527 1526 1526 1525 1524 1524 1523 1523 1522 1522 1522 1521 1521 1521 1520 1520 1519 1519 1518 1518 1517 1517 1517 1517 1517 1516 1515 1515 1514 1514 1513 1513 1513 1514 1511 1508 1508 1508 1507 1507 1506 1505 1504 1503 1503 1502 1501 1500 1499 1498 1497 1497 1497 1496 1495 1494 1493 1492 1490 1488 1487 1486
1528 1528 1528 1527 1527 1527 1526 1525 1525 1524 1523 1523 1522 1522 1522 1521 1520 1520 1520 1519 1519 1519 1518 1518 1517 1517 1517 1517 1516 1516 1515 1515 1514 1514 1513 1513 1512 1512 1512 1512 1513 1510 1507 1507 1507 1507 1506 1505 1504 1503 1502 1502 1501 1500 1499 1498 1498 1497 1497 1496 1495 1494 1493 1492 1490 1489 1487 1486 1485
1527 1527 1527 1526 1526 1525 1524 1524 1523 1523 1522 1522 1521 1521 1520 1520 1519 1519 1518 1518 1517 1517 1517 1516 1516 1516 1515 1515 1515 1514 1514 1513 1513 1512 1512 1511 1511 1511 1512 1512 1512 1509 1506 1506 1506 1505 1505 1504 1503 1502 1502 1501 1500 1499 1498 1497 1497 1497 1496 1495 1494 1493 1492 1491 1489 1488 1486 1485 1484
1526 1526 1525 1525 1524 1523 1522 1522 1522 1521 1521 1520 1520 1519 1519 1518 1518 1517 1517 1516 1516 1515 1515 1515 1514 1514 1514 1513 1513 1513 1512 1512 1511 1510 1510 1510 1510 1510 1510 1511 1511 1508 1506 1505 1505 1504 1503 1503 1502 1501 1501 1500 1499 1498 1497 1497 1497 1496 1495 1494 1493 1492 1491 1490 1488 1487 1485 1484 1483
1525 1524 1524 1523 1522 1522 1521 1521 1520 1520 1519 1519 1518 1518 1517 1517 1516 1516 1515 1515 1514 1514 1513 1513 1513 1512 1512 1512 1512 1511 1511 1510 1509 1509 1508 1508 1508 1509 1509 1509 1509 1507 1505 1504 1503 1503 1502 1502 1501 1500 1500 1499 1498 1497 1497 1496 1495 1495 1494 1493 1492 1491 1490 1488 1487 1486 1484 1483 1482
1523 1523 1522 1522 1521 1520 1520 1519 1518 1518 1517 1517 1517 1516 1516 1515 1515 1514 1514 1513 1513 1512 1512 1512 1512 1511 1511 1511 1510 1510 1509 1508 1508 1507 1507 1507 1507 1507 1507 1507 1508 1506 1504 1503 1502 1502 1501 1500 1500 1499 1499 1498 1497 1497 1496 1495 1494 1493 1493 1492 1491 1490 1489 1487 1486 1485 1484 1482 1481
1522 1521 1521 1520 1519 1519 1518 1517 1517 1516 1516 1515 1515 1515 1514 1514 1513 1513 1512 1512 1512 1511 1511 1510 1510 1510 1509 1509 1509 1508 1507 1507 1507 1507 1506 1506 1506 1506 1506 1506 1506 1504 1502 1501 1501 1501 1500 1499 1498 1498 1497 1497 1497 1496 1495 1494 1493 1492 1492 1491 1490 1489 1487 1486 1485 1484 1483 1482 1480
1520 1519 1519 1518 1517 1517 1516 1516 1515 1515 1514 1514 1513 1513 1513 1512 1512 1511 1511 1510 1510 1509 1509 1509 1509 1508 1508 1507 1507 1507 1506 1506 1506 1505 1505 1505 1505 1504 1504 1504 1504 1503 1501 1499 1499 1499 1499 1498 1497 1497 1497 1496 1496 1495 1494 1493 1492 1492 1491 1490 1489 1488 1486 1485 1484 1483 1482 1481 1480
1518 1517 1517 1516 1516 1515 1514 1514 1513 1513 1513 1512 1512 1512 1511 1511 1510 1510 1509 1509 1508 1508 1507 1507 1507 1507 1506 1506 1506 1505 1504 1504 1504 1504 1504 1504 1503 1502 1502 1502 1502 1501 1500 1498 1497 1497 1497 1497 1496 1496 1496 1495 1495 1494 1493 1492 1492 1491 1490 1489 1488 1487 1485 1484 1483 1482 1482 1481 1480